Time,TemperatureF,DewpointF,PressureIn,WindDirection,WindDirectionDegrees,WindSpeedMPH,WindSpeedGustMPH,Humidity,HourlyPrecipIn,Conditions,Clouds,dailyrainin,SoftwareType,DateUTC
2013-06-07 00:00:00,65.2,65.0,29.83,SSE,155,0.0,1.0,99,0.00,,,0.28,weatherlink.com 1.10,2013-06-07 04:00:00,
2013-06-07 00:15:00,65.1,65.0,29.82,SSE,155,0.0,0.0,99,0.01,,,0.01,weatherlink.com 1.10,2013-06-07 04:15:00,
2013-06-07 00:30:00,65.1,65.0,29.83,SSE,155,0.0,0.0,99,0.01,,,0.01,weatherlink.com 1.10,2013-06-07 04:30:00,
2013-06-07 00:45:00,65.2,65.0,29.82,SSE,157,0.0,1.0,99,0.01,,,0.01,weatherlink.com 1.10,2013-06-07 04:45:00,
2013-06-07 01:00:00,65.4,65.0,29.82,SSE,164,0.0,1.0,99,0.01,,,0.01,weatherlink.com 1.10,2013-06-07 05:00:00,
2013-06-07 01:15:00,65.5,65.0,29.82,SSE,165,0.0,1.0,99,0.00,,,0.01,weatherlink.com 1.10,2013-06-07 05:15:00,
2013-06-07 01:30:00,65.6,65.0,29.81,SSE,165,0.0,0.0,99,0.00,,,0.01,weatherlink.com 1.10,2013-06-07 05:30:00,
2013-06-07 01:45:00,65.6,65.0,29.81,SSE,165,0.0,0.0,99,0.00,,,0.01,weatherlink.com 1.10,2013-06-07 05:45:00,
2013-06-07 02:00:00,65.7,65.0,29.81,SSE,165,0.0,0.0,99,0.01,,,0.02,weatherlink.com 1.10,2013-06-07 06:00:00,
2013-06-07 02:15:00,65.6,65.0,29.80,SSE,165,0.0,0.0,99,0.01,,,0.02,weatherlink.com 1.10,2013-06-07 06:15:00,
2013-06-07 02:30:00,65.7,65.0,29.80,SSE,165,0.0,0.0,99,0.01,,,0.02,weatherlink.com 1.10,2013-06-07 06:30:00,
2013-06-07 02:45:00,65.8,66.0,29.79,SSE,165,0.0,0.0,99,0.01,,,0.02,weatherlink.com 1.10,2013-06-07 06:45:00,
2013-06-07 03:00:00,65.8,66.0,29.78,SSE,165,0.0,0.0,99,0.00,,,0.02,weatherlink.com 1.10,2013-06-07 07:00:00,
2013-06-07 03:15:00,65.8,66.0,29.77,SSE,165,0.0,0.0,99,0.00,,,0.02,weatherlink.com 1.10,2013-06-07 07:15:00,
2013-06-07 03:30:00,65.8,66.0,29.77,SSE,165,0.0,0.0,99,0.00,,,0.02,weatherlink.com 1.10,2013-06-07 07:30:00,
2013-06-07 03:45:00,65.9,66.0,29.76,SSE,165,0.0,0.0,99,0.00,,,0.02,weatherlink.com 1.10,2013-06-07 07:45:00,
2013-06-07 04:00:00,65.9,66.0,29.75,SSE,166,0.0,0.0,99,0.00,,,0.02,weatherlink.com 1.10,2013-06-07 08:00:00,
2013-06-07 04:15:00,66.0,66.0,29.74,SSE,165,0.0,0.0,99,0.01,,,0.03,weatherlink.com 1.10,2013-06-07 08:15:00,
2013-06-07 04:30:00,66.0,66.0,29.74,SSE,165,0.0,0.0,99,0.01,,,0.03,weatherlink.com 1.10,2013-06-07 08:30:00,
2013-06-07 04:46:00,66.0,66.0,29.74,SSE,166,0.0,0.0,99,0.01,,,0.03,weatherlink.com 1.10,2013-06-07 08:46:00,
2013-06-07 05:00:00,65.9,66.0,29.73,SSE,166,0.0,0.0,99,0.01,,,0.03,weatherlink.com 1.10,2013-06-07 09:00:00,
2013-06-07 05:15:00,65.8,66.0,29.73,SSE,166,0.0,0.0,99,0.00,,,0.03,weatherlink.com 1.10,2013-06-07 09:15:00,
2013-06-07 05:31:00,65.7,65.0,29.73,SSE,166,0.0,0.0,99,0.00,,,0.03,weatherlink.com 1.10,2013-06-07 09:31:00,
2013-06-07 05:46:00,65.7,65.0,29.72,SSE,166,0.0,0.0,99,0.00,,,0.03,weatherlink.com 1.10,2013-06-07 09:46:00,
2013-06-07 06:01:00,65.6,65.0,29.72,SSE,166,0.0,0.0,99,0.00,,,0.03,weatherlink.com 1.10,2013-06-07 10:01:00,
2013-06-07 06:16:00,65.6,65.0,29.72,SSE,166,0.0,0.0,99,0.00,,,0.03,weatherlink.com 1.10,2013-06-07 10:16:00,
2013-06-07 06:31:00,65.7,65.0,29.72,SSE,166,0.0,0.0,99,0.01,,,0.04,weatherlink.com 1.10,2013-06-07 10:31:00,
2013-06-07 06:46:00,65.7,65.0,29.71,SSE,166,0.0,0.0,99,0.01,,,0.04,weatherlink.com 1.10,2013-06-07 10:46:00,
2013-06-07 07:01:00,65.7,65.0,29.71,SSE,167,0.0,0.0,99,0.01,,,0.04,weatherlink.com 1.10,2013-06-07 11:01:00,
2013-06-07 07:16:00,65.7,65.0,29.70,SSE,167,0.0,0.0,99,0.01,,,0.04,weatherlink.com 1.10,2013-06-07 11:16:00,
2013-06-07 07:31:00,65.8,66.0,29.70,SSE,167,0.0,0.0,99,0.00,,,0.04,weatherlink.com 1.10,2013-06-07 11:31:00,
2013-06-07 07:46:00,65.8,66.0,29.70,SSE,167,0.0,0.0,99,0.00,,,0.04,weatherlink.com 1.10,2013-06-07 11:46:00,
2013-06-07 08:01:00,65.9,66.0,29.69,East,92,0.0,1.0,99,0.06,,,0.10,weatherlink.com 1.10,2013-06-07 12:01:00,
2013-06-07 08:16:00,65.8,66.0,29.69,East,92,0.0,0.0,99,0.06,,,0.10,weatherlink.com 1.10,2013-06-07 12:16:00,
2013-06-07 08:31:00,65.8,66.0,29.69,ENE,69,0.0,1.0,99,0.06,,,0.10,weatherlink.com 1.10,2013-06-07 12:31:00,
2013-06-07 08:46:00,65.9,66.0,29.68,ENE,67,0.0,1.0,99,0.06,,,0.10,weatherlink.com 1.10,2013-06-07 12:46:00,
2013-06-07 09:16:00,66.2,66.0,29.69,ENE,68,0.0,1.0,99,0.00,,,0.10,weatherlink.com 1.10,2013-06-07 13:16:00,
2013-06-07 09:46:00,66.5,66.0,29.68,ENE,74,0.0,1.0,99,0.00,,,0.10,weatherlink.com 1.10,2013-06-07 13:46:00,
2013-06-07 10:31:00,67.0,67.0,29.67,SW,226,0.0,3.0,99,0.00,,,0.10,weatherlink.com 1.10,2013-06-07 14:31:00,
2013-06-07 10:46:00,67.8,68.0,29.66,West,261,0.0,2.0,99,0.00,,,0.10,weatherlink.com 1.10,2013-06-07 14:46:00,
2013-06-07 11:01:00,67.8,68.0,29.66,WNW,302,1.0,2.0,99,0.00,,,0.10,weatherlink.com 1.10,2013-06-07 15:01:00,
2013-06-07 11:16:00,67.8,68.0,29.66,ENE,70,0.0,4.0,99,0.00,,,0.10,weatherlink.com 1.10,2013-06-07 15:16:00,
2013-06-07 11:31:00,68.3,68.0,29.65,East,90,0.0,2.0,99,0.00,,,0.10,weatherlink.com 1.10,2013-06-07 15:31:00,
2013-06-07 11:46:00,68.5,68.0,29.65,North,5,2.0,3.0,98,0.00,,,0.10,weatherlink.com 1.10,2013-06-07 15:46:00,
2013-06-07 12:01:00,68.6,68.0,29.66,ENE,59,0.0,3.0,96,0.00,,,0.10,weatherlink.com 1.10,2013-06-07 16:01:00,
2013-06-07 12:16:00,68.8,68.0,29.66,SSW,213,0.0,2.0,96,0.00,,,0.10,weatherlink.com 1.10,2013-06-07 16:16:00,
2013-06-07 12:31:00,69.0,68.0,29.65,SW,234,0.0,3.0,95,0.00,,,0.10,weatherlink.com 1.10,2013-06-07 16:31:00,
2013-06-07 12:46:00,69.0,68.0,29.64,ENE,57,0.0,3.0,95,0.00,,,0.10,weatherlink.com 1.10,2013-06-07 16:46:00,
2013-06-07 13:01:00,69.1,68.0,29.63,East,92,0.0,3.0,95,0.00,,,0.10,weatherlink.com 1.10,2013-06-07 17:01:00,
2013-06-07 13:31:00,69.2,68.0,29.61,WNW,282,0.0,3.0,94,0.00,,,0.10,weatherlink.com 1.10,2013-06-07 17:31:00,
2013-06-07 13:46:00,69.2,68.0,29.61,East,80,0.0,2.0,94,0.00,,,0.10,weatherlink.com 1.10,2013-06-07 17:46:00,
2013-06-07 14:01:00,69.3,68.0,29.61,ESE,105,0.0,2.0,94,0.00,,,0.10,weatherlink.com 1.10,2013-06-07 18:01:00,
2013-06-07 14:16:00,69.5,68.0,29.61,SW,225,1.0,2.0,94,0.00,,,0.10,weatherlink.com 1.10,2013-06-07 18:16:00,
2013-06-07 14:31:00,69.6,68.0,29.61,SW,225,0.0,1.0,94,0.00,,,0.10,weatherlink.com 1.10,2013-06-07 18:31:00,
2013-06-07 14:46:00,69.5,68.0,29.61,North,360,0.0,1.0,94,0.00,,,0.10,weatherlink.com 1.10,2013-06-07 18:46:00,
2013-06-07 15:01:00,69.7,68.0,29.61,NW,319,0.0,0.0,94,0.00,,,0.10,weatherlink.com 1.10,2013-06-07 19:01:00,
2013-06-07 15:31:00,70.1,68.0,29.63,SSW,203,0.0,0.0,94,0.00,,,0.10,weatherlink.com 1.10,2013-06-07 19:31:00,
2013-06-07 15:46:00,70.3,68.0,29.63,SSW,203,0.0,0.0,93,0.00,,,0.10,weatherlink.com 1.10,2013-06-07 19:46:00,
2013-06-07 16:02:00,70.5,68.0,29.63,SSW,203,0.0,0.0,93,0.00,,,0.10,weatherlink.com 1.10,2013-06-07 20:02:00,
2013-06-07 16:17:00,70.9,69.0,29.62,SSW,203,0.0,0.0,94,0.00,,,0.10,weatherlink.com 1.10,2013-06-07 20:17:00,
2013-06-07 16:32:00,71.3,69.0,29.62,SSW,203,0.0,1.0,93,0.00,,,0.10,weatherlink.com 1.10,2013-06-07 20:32:00,
2013-06-07 16:47:00,71.4,69.0,29.62,SSW,203,0.0,0.0,93,0.00,,,0.10,weatherlink.com 1.10,2013-06-07 20:47:00,
2013-06-07 17:02:00,71.7,69.0,29.62,SSW,203,0.0,1.0,92,0.00,,,0.10,weatherlink.com 1.10,2013-06-07 21:02:00,
2013-06-07 17:17:00,72.0,70.0,29.63,SSW,203,0.0,0.0,93,0.00,,,0.10,weatherlink.com 1.10,2013-06-07 21:17:00,
2013-06-07 17:32:00,71.9,70.0,29.63,West,267,0.0,1.0,93,0.00,,,0.10,weatherlink.com 1.10,2013-06-07 21:32:00,
2013-06-07 17:47:00,71.3,69.0,29.64,WSW,250,0.0,1.0,93,0.00,,,0.10,weatherlink.com 1.10,2013-06-07 21:47:00,
2013-06-07 18:02:00,70.9,70.0,29.65,WNW,286,1.0,2.0,95,0.00,,,0.10,weatherlink.com 1.10,2013-06-07 22:02:00,
2013-06-07 18:17:00,70.6,70.0,29.65,WNW,288,0.0,1.0,97,0.00,,,0.10,weatherlink.com 1.10,2013-06-07 22:17:00,
2013-06-07 18:32:00,71.0,70.0,29.66,West,270,0.0,1.0,97,0.00,,,0.10,weatherlink.com 1.10,2013-06-07 22:32:00,
2013-06-07 18:47:00,71.0,70.0,29.66,West,275,0.0,0.0,97,0.00,,,0.10,weatherlink.com 1.10,2013-06-07 22:47:00,
2013-06-07 19:02:00,71.0,70.0,29.67,West,275,0.0,0.0,97,0.00,,,0.10,weatherlink.com 1.10,2013-06-07 23:02:00,
2013-06-07 19:17:00,71.1,70.0,29.69,SSW,209,0.0,0.0,96,0.00,,,0.10,weatherlink.com 1.10,2013-06-07 23:17:00,
2013-06-07 19:32:00,71.0,70.0,29.69,SSE,163,0.0,0.0,96,0.00,,,0.10,weatherlink.com 1.10,2013-06-07 23:32:00,
2013-06-07 19:47:00,71.0,70.0,29.70,SSE,163,0.0,0.0,96,0.00,,,0.10,weatherlink.com 1.10,2013-06-07 23:47:00,
2013-06-07 20:02:00,71.0,70.0,29.71,SSE,163,0.0,0.0,96,0.00,,,0.10,weatherlink.com 1.10,2013-06-08 00:02:00,
2013-06-07 20:17:00,70.6,69.0,29.72,NNE,17,0.0,3.0,95,0.00,,,0.10,weatherlink.com 1.10,2013-06-08 00:17:00,
2013-06-07 20:32:00,70.4,69.0,29.73,NNE,17,0.0,0.0,96,0.00,,,0.10,weatherlink.com 1.10,2013-06-08 00:32:00,
2013-06-07 20:47:00,70.1,69.0,29.73,NNE,17,0.0,0.0,96,0.00,,,0.10,weatherlink.com 1.10,2013-06-08 00:47:00,
2013-06-07 21:02:00,69.7,69.0,29.74,NNE,17,0.0,0.0,97,0.00,,,0.10,weatherlink.com 1.10,2013-06-08 01:02:00,
2013-06-07 21:32:00,69.0,68.0,29.76,NE,51,0.0,1.0,97,0.00,,,0.10,weatherlink.com 1.10,2013-06-08 01:32:00,
2013-06-07 21:47:00,68.1,67.0,29.77,NE,51,0.0,0.0,95,0.00,,,0.10,weatherlink.com 1.10,2013-06-08 01:47:00,
2013-06-07 22:02:00,67.6,66.0,29.77,NE,51,0.0,0.0,95,0.00,,,0.10,weatherlink.com 1.10,2013-06-08 02:02:00,
2013-06-07 22:17:00,67.2,66.0,29.78,NE,51,0.0,0.0,95,0.00,,,0.10,weatherlink.com 1.10,2013-06-08 02:17:00,
2013-06-07 22:32:00,66.8,65.0,29.79,NE,51,0.0,0.0,95,0.00,,,0.10,weatherlink.com 1.10,2013-06-08 02:32:00,
2013-06-07 22:47:00,66.6,65.0,29.79,NE,51,0.0,0.0,95,0.00,,,0.10,weatherlink.com 1.10,2013-06-08 02:47:00,
2013-06-07 23:02:00,66.3,65.0,29.79,NE,51,0.0,0.0,95,0.00,,,0.10,weatherlink.com 1.10,2013-06-08 03:02:00,
2013-06-07 23:17:00,66.0,64.0,29.80,NE,51,0.0,0.0,94,0.00,,,0.10,weatherlink.com 1.10,2013-06-08 03:17:00,
2013-06-07 23:32:00,65.8,64.0,29.80,NE,51,0.0,0.0,93,0.00,,,0.10,weatherlink.com 1.10,2013-06-08 03:32:00,